Regional Weather Roundup
Issued by NWS

Home | Current Version | Previous Version | Graphics & Text | Print | Product List | Glossary On
Versions: 1 2 3 4 5 6 7 8 9 10 11 12 13 14 15 16 17 18 19 20 21 22 23 24 25 26 27 28 29 30 31 32 33 34 35 36 37 38 39 40 41 42 43 44 45 46 47 48 49 50
923
ASUS45 KPSR 012310
RWRAZ

ARIZONA HOURLY REGIONAL WEATHER ROUNDUP
NATIONAL WEATHER SERVICE PHOENIX AZ
400 PM MST THU DEC 01 2016

NOTE: FAIR INDICATES FEW OR NO CLOUDS BELOW 12,000 FEET WITH NO
SIGNIFICANT WEATHER AND/OR OBSTRUCTIONS TO VISIBILITY.

AZZ001>003-036-020000-
NORTHWEST ARIZONA

CITY           SKY/WX    TMP DP  RH WIND       PRES   REMARKS
BULLHEAD CITY  MOSUNNY   61  18  18 N17G26    29.91F
KINGMAN        MOSUNNY   50  13  22 MISG      29.93S
$$

AZZ004>008-015-016-018-020000-
NORTH CENTRAL ARIZONA

CITY           SKY/WX    TMP DP  RH WIND       PRES   REMARKS
GRAND CANYON   MOSUNNY   37  19  48 CALM      29.94S
PRESCOTT       PTSUNNY   43  16  33 VRB3      29.92F
FLAGSTAFF      MOSUNNY   38  14  37 E3        29.92S
PAYSON         CLOUDY    45  14  29 S6        29.95S
PAGE           SUNNY     44  14  29 NE6       29.93F
$$

AZZ009>014-017-020000-
NORTHEAST ARIZONA

CITY           SKY/WX    TMP DP  RH WIND       PRES   REMARKS
WINSLOW        CLOUDY    41  17  38 N6        29.94F
SAINT JOHNS    CLOUDY    44  10  25 CALM      29.91S
WINDOW ROCK    PTSUNNY   39  15  37 VRB5      29.92S
SHOW LOW       PTSUNNY   39  10  30 SW12      29.94R WCI  32
$$

AZZ023-020000-
GREATER PHOENIX AREA

CITY           SKY/WX    TMP DP  RH WIND       PRES   REMARKS
PHOENIX        MOSUNNY   61  23  23 W7        29.88F
BUCKEYE        SUNNY     59  19  21 NW3       29.91F
GLENDALE       MOSUNNY   61  23  23 W5        29.91F
LUKE AFB       SUNNY     60  25  26 CALM      29.88F
DEER VALLEY    MOSUNNY   59  23  25 NW5       29.89F
SCOTTSDALE     MOSUNNY   60  23  24 CALM      29.90F
MESA-FALCON    MOSUNNY  N/A N/A N/A SW6       29.87F
MESA-GATEWAY   MOSUNNY   59  21  23 W5        29.90F
CHANDLER       SUNNY     61  27  27 SW6       29.90
$$

AZZ027-028-020000-
SOUTHWEST MARICOPA COUNTY AND PINAL COUNTY

CITY           SKY/WX    TMP DP  RH WIND       PRES   REMARKS
CASA GRANDE    NOT AVBL
GILA BEND      SUNNY     62  20  19 VRB5      29.89F
$$

AZZ503-504-507>509-020000-
SOUTHEAST ARIZONA

CITY           SKY/WX    TMP DP  RH WIND       PRES   REMARKS
TUCSON         MOSUNNY   63  12  13 N8        29.90S
DAVIS-MONTHAN  SUNNY     61  13  15 N10       29.88S
RYAN FIELD     SUNNY     61  12  15 NW13      29.90S
NOGALES        SUNNY     61   9  12 SW9       29.90S
SIERRA VISTA   SUNNY     60   9  13 W14G22    29.91S
DOUGLAS        SUNNY     64  18  17 W15G26    29.88S
SAFFORD        MOSUNNY   58  19  22 W3        29.87F
$$

AZZ020-021-025-026-031-020000-
SOUTHWEST ARIZONA

CITY           SKY/WX    TMP DP  RH WIND       PRES   REMARKS
YUMA           MOSUNNY   67  18  15 N7        29.89F
$$

CAZ031-033-041-043-047-048-061-020000-
SOUTHERN CALIFORNIA

CITY           SKY/WX    TMP DP  RH WIND       PRES   REMARKS
DOWNTOWN L.A.  SUNNY     65  36  34 CALM      29.90F
L.A. AIRPORT   MOSUNNY   62  49  62 SW10      29.92F
SAN DIEGO      MOSUNNY   62  49  62 SW8       29.93F
BURBANK        SUNNY     64  30  27 CALM      29.90F
ONTARIO        PTSUNNY   62  35  36 VRB3      29.89F
RIVERSIDE      MOSUNNY   64  32  30 E5        29.90F
PALM SPRINGS   MOSUNNY   66  21  18 VRB6      29.91F
EL CENTRO NAS  MOSUNNY   67  24  19 E5        29.91F
IMPERIAL       SUNNY     67  28  23 E8        29.89F
BLYTHE         SUNNY     62  21  20 SE5       29.92F
NEEDLES        PTSUNNY   63  18  17 N7        29.92F
$$

NVZ020-UTZ003-020000-
SOUTHERN NEVADA-UTAH

CITY           SKY/WX    TMP DP  RH WIND       PRES   REMARKS
LAS VEGAS      PTSUNNY   56  16  20 NE6       29.94F
SALT LAKE CITY MOCLDY    34  28  79 N9        30.06S WCI  27
$$

NMZ009-TXZ055-020000-
NEW MEXICO-WEST TEXAS

CITY           SKY/WX    TMP DP  RH WIND       PRES   REMARKS
ALBUQUERQUE    MOCLDY    42  11  28 S3        29.94S
EL PASO        MOSUNNY   58  25  28 VRB5      29.90F
$$


........................KEY........................
SKY/WX - SKY CONDITION/WEATHER
TMP    - TEMPERATURE IN FAHRENHEIT
DP     - DEW POINT IN FAHRENHEIT
RH     - RELATIVE HUMIDITY IN PERCENT
WIND   - DIRECTION AND SPEED IN MILES PER HOUR (MPH)
VRB    - VARIABLE WIND DIRECTION
PRES   - MEAN SEA LEVEL PRESSURE IN INCHES OF MERCURY
         F - FALLING PRESSURE   R - RISING PRESSURE
         S - STEADY PRESSURE
VSB    - VISIBILITY IN MILES
HX     - HEAT INDEX IN FAHRENHEIT
WCI    - WIND CHILL INDEX IN FAHRENHEIT
TC     - TEMPERATURE IN CELSIUS WHICH IS ALSO KNOWN AS
         TEMPERATURE IN CENTIGRADE
AFB    - AIR FORCE BASE
         LUKE AFB IS LUKE AIR FORCE BASE
         DAVIS-MONTHAN IS DAVIS-MONTHAN AIR FORCE BASE
NAS    - NAVAL AIR STATION
         EL CENTRO NAS IS EL CENTRO NAVAL AIR STATION
N/A    - NOT AVAILABLE





USA.gov is the U.S. government's official web portal to all federal, state and local government web resources and services.